Terminal Aerodrome Forecast
Issued by NWS

Home | Current Version | Previous Version | Text Only | Print | Product List | Glossary On
Versions: 1 2 3 4 5 6 7 8 9 10 11 12 13 14 15 16 17 18 19 20 21 22 23 24 25 26
641
FTPQ31 PGUM 101315 AAI
TAFTRO
TAF AMD
PTRO 101315Z 1013/1112 05011KT P6SM VCSH FEW016 SCT050 BKN120
      TEMPO 1013/1017 -SHRA BKN014 OVC040=

USA.gov is the U.S. government's official web portal to all federal, state and local government web resources and services.